User: anonymous
Location: Albany
(35.0000°S, 118.0000°E)
Time: 14:40:32
(UTC-04:00)
Language:

Centaur D-1AR AC-48 - Orbit

View from above orbital plane
View from above orbital plane
View from above satellite
View from above satellite

Ground track
Ground track

The orbit data is extracted from the following two-line orbital elements,

1 10779U 78035B   14106.82930509  .00000046  00000-0  14395-2 0  8730
2 10779 021.4900 110.6249 7164289 019.8439 349.1447 02.22622443292907
Epoch (UTC): 16 April 2014 19:54:11
Eccentricity: 0.7164289
inclination: 21.4900°
perigee height: 647 km
apogee height: 36147 km
right ascension of ascending node: 110.6249°
argument of perigee: 19.8439°
revolutions per day: 2.22622443
mean anomaly at epoch: 349.1447°
orbit number at epoch: 29290

The dashed part of the orbit path shows where the satellite is in the earth's shadow,  

DLR